Regional Weather Roundup
Issued by NWS

Home | Current Version | Previous Version | Text Only | Print | Product List | Glossary Off
Versions: 1 2 3 4 5 6 7 8 9 10 11 12 13 14 15 16 17 18 19 20 21 22 23 24 25 26 27 28 29 30 31 32 33 34 35 36 37 38 39 40 41 42 43 44 45 46 47 48 49 50

000
ASUS43 KDMX 280503
RWRIA

WEATHER ROUNDUP FOR IOWA
NATIONAL WEATHER SERVICE DES MOINES IA
1200 AM CDT THU JUL 28 2016

NOTE: "FAIR" INDICATES FEW OR NO CLOUDS BELOW 12,000 FEET WITH NO
SIGNIFICANT WEATHER AND/OR OBSTRUCTIONS TO VISIBILITY.

* - THESE STATIONS ARE NOT NWS STATIONS...THUS NOT UNDER NWS
QUALITY CONTROL.  THEY ALSO DO NOT REPORT WEATHER SUCH
AS PRECIPITATION OR FOG.

IAZ001>003-012>014-020>022-031>034-043>046-280600-
   NORTHWEST IOWA

CITY           SKY/WX    TMP DP  RH WIND       PRES   REMARKS
CARROLL *      PTCLDY    72  70  94 N7        29.98S
CHEROKEE *     PTCLDY    70  66  88 N6        30.00F
DENISON *      CLOUDY    72  68  88 CALM      29.98S
LE MARS *      PTCLDY    70  64  83 N5        30.02R
SHELDON *      CLOUDY    66  64  94 N6        30.00F
SIOUX CITY     PTCLDY    78  64  61 N9        30.00S HX  80
SPENCER        CLOUDY    69  64  84 N9        30.01S
STORM LAKE *   CLEAR     70  66  88 N8        30.01F
$$

IAZ055>058-069>071-079>083-090>094-280600-
   SOUTHWEST IOWA

CITY           SKY/WX    TMP DP  RH WIND       PRES   REMARKS
ATLANTIC *     PTCLDY    68  68 100 CALM      29.98S
CLARINDA *       N/A     70  70 100 MISG      30.00S
COUNCIL BLFS *   N/A     72  70  94 CALM      29.99F
CRESTON *      CLEAR     68  68 100 W5        29.99S
HARLAN  *      PTCLDY    66  66 100 CALM      30.02R
LAMONI         CLEAR     72  71  97 CALM      29.96F
RED OAK *      CLEAR     70  68  94 CALM      29.98S
SHENANDOAH *     N/A     70  70 100 CALM      29.99S
$$

IAZ047>049-059>061-072>074-084-280600-
   CENTRAL IOWA

CITY           SKY/WX    TMP DP  RH WIND       PRES   REMARKS
AMES           MOCLDY    72  72 100 NW5       29.96S
ANKENY *         N/A    N/A N/A N/A MISG        N/A
BOONE *          N/A     72  68  88 N5        29.97R
CHARITON *       N/A    N/A N/A N/A MISG        N/A
DES MOINES     PTCLDY    75  68  78 CALM      29.95S
GRINNELL*      CLEAR     68  65  92 CALM      29.97S
KNOXVILLE *    CLEAR     73  70  88 CALM      29.94F
MARSHALLTOWN   PTCLDY    70  68  93 CALM      29.95F
NEWTON *       PTCLDY    70  70 100 CALM      29.95F
PELLA *        CLEAR     70  68  92 CALM      29.96F
PERRY *          N/A     70  70  98 CALM      29.97S
$$

IAZ004>006-015-016-023>025-035-036-280600-
   NORTH CENTRAL IOWA

CITY           SKY/WX    TMP DP  RH WIND       PRES   REMARKS
ALGONA *       CLEAR     68  66  94 N6        30.00S
ESTHERVILLE    CLEAR     65  65 100 N7        30.01S
FORT DODGE *   CLEAR     70  66  88 N3        30.00R
MASON CITY     CLEAR     68  66  93 NW7       30.00R
FOREST CITY *    N/A     68  66  94 NW6       29.99S
IOWA FALLS *     N/A     70  67  92 W5        29.97F
$$

IAZ007>011-017>019-026>030-037>042-050>054-066-280600-
   NORTHEAST IOWA

CITY           SKY/WX    TMP DP  RH WIND       PRES   REMARKS
CEDAR RAPIDS   CLEAR     68  68 100 NW5       29.95R
CHARLES CITY * CLEAR     68  68 100 NW5       29.96F
CLINTON *      CLEAR     72  70  93 CALM      29.94S
DECORAH *      MOCLDY    70  68  94 CALM      29.94F
DUBUQUE        CLEAR     70  67  90 CALM      29.96S
MONTICELLO *   CLEAR     70  70 100 CALM      29.95S FOG
OELWEIN *      CLEAR     66  66 100 SE3       29.95F
WATERLOO       MOCLDY    71  67  87 S5        29.93F
$$

IAZ064-065-067-068-078-280600-
   EAST CENTRAL IOWA

CITY           SKY/WX    TMP DP  RH WIND       PRES   REMARKS
DAVENPORT      PTCLDY    72  69  90 S3        29.94S
IOWA CITY      CLEAR     72  68  87 W3        29.95S
MT. PLEASANT * PTCLDY    75  74  96 NW3       29.94F
MUSCATINE *    CLEAR     72  70  94 CALM      29.94S
QUAD CITIES    PTCLDY    75  68  78 CALM      29.93R
$$

IAZ062-063-075>077-085>089-095>099-280600-
   SOUTHEAST IOWA

CITY           SKY/WX    TMP DP  RH WIND       PRES   REMARKS
BURLINGTON     PTCLDY    75  73  93 N3        29.93S
FAIRFIELD *    CLEAR     72  68  88 N6        29.94F
KEOKUK *       CLOUDY    75  73  94 N5        29.91F
OSKALOOSA *      N/A     69  68  94 CALM      29.96
CENTERVILLE *    N/A     68  68 100 CALM      29.98R
OTTUMWA        CLEAR     73  68  84 NE6       29.94S
WASHINGTON *   CLEAR     72  70  94 CALM      29.96R
$$

ABBREVIATIONS USED IN REMARKS
   TC - TEMPERATURES IN CELSIUS
  WCI - WIND CHILL INDEX
   HX - HEAT INDEX
  VSB - VISIBILITY
$$





USA.gov is the U.S. government's official web portal to all federal, state and local government web resources and services.